Location: Recife
(8.0585°S, 34.8848°W)
Time: 11:28:36
(UTC-03:00)

Vanguard 2 Rocket - Pass Details

Date: 18 April 2026
Orbit: 553 x 3286 km, 32.9° (Epoch: 7 May)

Event Time Altitude Azimuth Distance (km) Brightness Sun altitude
Rises 06:10:42 0° 256° (WSW) 3,795 9.4 11.0°
Reaches altitude 10° 06:13:36 10° 241° (WSW) 3,169 9.1 11.7°
Maximum altitude 06:20:03 24° 189° (S) 2,926 9.4 13.3°
Drops below altitude 10° 06:29:45 10° 141° (SE) 4,897 11.0 15.6°
Sets 06:35:48 0° 129° (SE) 6,411 11.8 17.1°
